Weather in Vyatskoe

Russia / Khabarovsk Krai     48°44′24″N   135°43′15″E
temp.,
°C
wind,
m/s
gust,
m/s
humid.,
%
clouds,
%
prec.,
mm/h
press.,
hPa
HPBL,
m
26 july, mon
mon2601:00+21ssw2289100 1.6 100522
04:00+21sw119432 2.6 100613
07:00+22sse239593 0.9 100670
10:00+26s3574100 0.9 1005366
13:00+29sw5855100 0.0 1004671
16:00+30wsw365278 0.0 1003920
19:00+27n2269100 0.0 100317
22:00+25ese1172100 0.0 100311
27 july, tue
tue2701:00+23ese1179100 0.5 100312
04:00+23s2280100 0.5 100323
07:00+23wsw1281100 0.0 100453
10:00+27sw2369100 0.0 1004297
13:00+29wnw346599 0.0 1003643
16:00+29wnw236550 0.3 1003511
19:00+28wnw1272100 0.0 100143
22:00+24nne3585100 0.0 100293
28 july, wed
wed2801:00+22nne358594 0.0 100296
04:00+20n3589100 0.0 100286
07:00+21nne248785 0.0 1003112
10:00+26ne12705 0.0 1002344
13:00+30w115937 0.0 1001669
16:00+30wnw23588 0.0 999680
19:00+29nw11640 0.0 99829
22:00+25ene11635 0.0 99811
29 july, thu
thu2901:00+24se126532 0.0 99811
04:00+22w118078 0.4 99811
07:00+22sse249430 3.2 99881
10:00+26ssw347852 4.8 998368
13:00+28w346983 0.1 997701
16:00+29nw3570100 0.3 995417
19:00+28w367367 0.0 995278
22:00+25sw227679 0.0 99621
30 july, fri
fri3001:00+23ssw3586100 0.0 99682
04:00+23ssw2580100 0.0 99594
07:00+22ssw3685100 0.0 996156
10:00+26sw58645 0.0 997610
13:00+29w68520 0.0 9961173
16:00+29w57520 0.0 995871
19:00+27w23620 0.0 996117
22:00+25ssw225945 0.0 99721